CMP756 MPTO-SVBC

Flight info

Callsign CMP756
Flight time 2h 10m
Altitude 37000
Route REMAL1B REMAL DCT ESEDA UP650 UBDIM UW5 BRM UW14 GEMAP
Aircraft B38M/M-SDE1FGHILORVWXY/HB1

Departure

Time 2026-05-05 14:49
Airport Tocumen International Airport (MPTO)

Arrival

Time 2026-05-05 17:00
Airport General José Antonio Anzoategui International Airport (SVBC)
Time Latitude Longitude Altitude Speed Heading
2026-05-05 14:30 9.07046 -79.38495 33 ft 0 kts 301°
2026-05-05 14:41 9.07037 -79.38479 33 ft 4 kts 305°
2026-05-05 14:41 9.07019 -79.38458 33 ft 4 kts 320°
2026-05-05 14:41 9.06998 -79.38447 33 ft 4 kts
2026-05-05 14:42 9.06988 -79.38449 33 ft 0 kts 28°
2026-05-05 14:45 9.06989 -79.38448 33 ft 1 kts 28°
2026-05-05 14:45 9.07001 -79.38442 33 ft 3 kts 28°
2026-05-05 14:46 9.07028 -79.38427 33 ft 6 kts 28°
2026-05-05 14:46 9.07069 -79.38405 33 ft 8 kts 28°
2026-05-05 14:46 9.07124 -79.38376 33 ft 10 kts 28°
2026-05-05 14:46 9.07194 -79.38350 33 ft 12 kts 354°
2026-05-05 14:47 9.07251 -79.38407 33 ft 13 kts 302°
2026-05-05 14:47 9.07301 -79.38486 35 ft 14 kts 303°
2026-05-05 14:47 9.07347 -79.38562 39 ft 11 kts 295°
2026-05-05 14:47 9.07368 -79.38606 46 ft 2 kts 296°
2026-05-05 14:48 9.07369 -79.38608 47 ft 1 kts 296°
2026-05-05 14:48 9.07381 -79.38633 50 ft 7 kts 296°
2026-05-05 14:48 9.07439 -79.38643 48 ft 14 kts 36°
2026-05-05 14:48 9.07493 -79.38606 51 ft 0 kts 32°
2026-05-05 14:49 9.07535 -79.38579 51 ft 35 kts 32°
2026-05-05 14:49 9.07986 -79.38307 50 ft 113 kts 31°
2026-05-05 14:49 9.08834 -79.37791 100 ft 169 kts 32°
2026-05-05 14:49 9.09882 -79.37152 787 ft 180 kts 32°
2026-05-05 14:50 9.10926 -79.36402 1573 ft 192 kts 41°
2026-05-05 14:50 9.11803 -79.35256 2016 ft 221 kts 69°
2026-05-05 14:50 9.11969 -79.33681 2740 ft 237 kts 97°
2026-05-05 14:50 9.11386 -79.32074 3520 ft 246 kts 118°
2026-05-05 14:51 9.10558 -79.30547 4482 ft 251 kts 115°
2026-05-05 14:51 9.09789 -79.28914 5210 ft 263 kts 112°
2026-05-05 14:51 9.09090 -79.27202 6176 ft 264 kts 110°
2026-05-05 14:51 9.08445 -79.25433 6821 ft 271 kts 108°
2026-05-05 14:52 9.07844 -79.23630 6959 ft 270 kts 107°
2026-05-05 14:52 9.07276 -79.21818 6989 ft 269 kts 106°
2026-05-05 14:52 9.06726 -79.20007 6994 ft 269 kts 106°
2026-05-05 14:52 9.06188 -79.18197 6993 ft 269 kts 105°
2026-05-05 14:53 9.05804 -79.16320 7187 ft 278 kts 91°
2026-05-05 14:53 9.05766 -79.14362 8062 ft 280 kts 91°
2026-05-05 14:53 9.05717 -79.12382 8941 ft 283 kts 91°
2026-05-05 14:53 9.05672 -79.10405 9831 ft 286 kts 91°
2026-05-05 14:54 9.05627 -79.08379 10622 ft 289 kts 91°
2026-05-05 14:54 9.05583 -79.06337 11422 ft 292 kts 91°
2026-05-05 14:54 9.05538 -79.04271 12207 ft 296 kts 91°
2026-05-05 14:54 9.05493 -79.02178 13007 ft 299 kts 91°
2026-05-05 14:55 9.05447 -79.00061 13816 ft 302 kts 91°
2026-05-05 14:55 9.05401 -78.97925 14527 ft 306 kts 91°
2026-05-05 14:55 9.05354 -78.95763 15260 ft 308 kts 91°
2026-05-05 14:55 9.05307 -78.93583 15958 ft 312 kts 91°
2026-05-05 14:56 9.05258 -78.91380 16663 ft 315 kts 91°
2026-05-05 14:56 9.05209 -78.89155 17340 ft 318 kts 91°
2026-05-05 14:56 9.05159 -78.86906 18015 ft 321 kts 91°
2026-05-05 14:56 9.05110 -78.84639 18601 ft 324 kts 91°
2026-05-05 14:57 9.05065 -78.82335 19062 ft 333 kts 91°
2026-05-05 14:57 9.05033 -78.79935 19217 ft 349 kts 90°
2026-05-05 14:57 9.04998 -78.77432 19476 ft 361 kts 90°
2026-05-05 14:57 9.04962 -78.74888 20018 ft 363 kts 90°
2026-05-05 14:58 9.04925 -78.72318 20476 ft 367 kts 90°
2026-05-05 14:58 9.04887 -78.69723 20967 ft 371 kts 90°
2026-05-05 14:58 9.04849 -78.67104 21452 ft 374 kts 90°
2026-05-05 14:58 9.04811 -78.64495 21928 ft 378 kts 90°
2026-05-05 14:59 9.04772 -78.61827 22402 ft 381 kts 90°
2026-05-05 14:59 9.04732 -78.59128 22903 ft 386 kts 90°
2026-05-05 14:59 9.04691 -78.56399 23374 ft 390 kts 90°
2026-05-05 14:59 9.04650 -78.53648 23767 ft 393 kts 90°
2026-05-05 15:00 9.04609 -78.50874 24156 ft 395 kts 90°
2026-05-05 15:00 9.04581 -78.49036 24424 ft 397 kts 90°
2026-05-05 15:00 9.04524 -78.45282 24927 ft 400 kts 90°
2026-05-05 15:00 9.04481 -78.42459 25311 ft 403 kts 90°
2026-05-05 15:01 9.04437 -78.39615 25695 ft 405 kts 90°
2026-05-05 15:01 9.04393 -78.36758 26068 ft 408 kts 90°
2026-05-05 15:01 9.04349 -78.33882 26443 ft 410 kts 90°
2026-05-05 15:01 9.04304 -78.30985 26809 ft 413 kts 90°
2026-05-05 15:02 9.04259 -78.28074 27173 ft 415 kts 90°
2026-05-05 15:02 9.04213 -78.25137 27533 ft 418 kts 90°
2026-05-05 15:02 9.04166 -78.22190 27885 ft 420 kts 90°
2026-05-05 15:02 9.04119 -78.19226 28234 ft 423 kts 90°
2026-05-05 15:03 9.04072 -78.16245 28581 ft 425 kts 90°
2026-05-05 15:03 9.04024 -78.13284 28910 ft 428 kts 90°
2026-05-05 15:03 9.03976 -78.10268 29238 ft 430 kts 90°
2026-05-05 15:03 9.03927 -78.07233 29573 ft 432 kts 90°
2026-05-05 15:04 9.03877 -78.04184 29904 ft 435 kts 90°
2026-05-05 15:04 9.03827 -78.01116 30191 ft 437 kts 90°
2026-05-05 15:04 9.03776 -77.98035 30458 ft 439 kts 90°
2026-05-05 15:04 9.03726 -77.94938 30724 ft 441 kts 90°
2026-05-05 15:05 9.03622 -77.88709 31282 ft 445 kts 90°
2026-05-05 15:05 9.03569 -77.85573 31543 ft 447 kts 90°
2026-05-05 15:05 9.03516 -77.82422 31805 ft 449 kts 90°
2026-05-05 15:06 9.03463 -77.79258 32062 ft 451 kts 90°
2026-05-05 15:06 9.03409 -77.76082 32320 ft 453 kts 90°
2026-05-05 15:06 9.03354 -77.72889 32569 ft 455 kts 90°
2026-05-05 15:06 9.03299 -77.69685 32816 ft 457 kts 90°
2026-05-05 15:07 9.03243 -77.66465 33063 ft 458 kts 90°
2026-05-05 15:07 9.03188 -77.63280 33317 ft 460 kts 90°
2026-05-05 15:07 9.03131 -77.60036 33553 ft 462 kts 90°
2026-05-05 15:07 9.03075 -77.56779 33793 ft 464 kts 90°
2026-05-05 15:08 9.03017 -77.53509 34037 ft 465 kts 90°
2026-05-05 15:08 9.02959 -77.50243 34299 ft 465 kts 90°
2026-05-05 15:08 9.02901 -77.46973 34581 ft 464 kts 90°
2026-05-05 15:08 9.02843 -77.43705 34854 ft 464 kts 90°
2026-05-05 15:09 9.03037 -77.40455 35122 ft 462 kts 78°
2026-05-05 15:09 9.03654 -77.37278 35393 ft 461 kts 79°
2026-05-05 15:09 9.04230 -77.34084 35635 ft 461 kts 79°
2026-05-05 15:09 9.04819 -77.30893 35882 ft 461 kts 79°
2026-05-05 15:10 9.05413 -77.27703 36135 ft 461 kts 78°
2026-05-05 15:10 9.06007 -77.24519 36384 ft 461 kts 79°
2026-05-05 15:10 9.06603 -77.21332 36639 ft 460 kts 78°
2026-05-05 15:10 9.07196 -77.18152 36900 ft 460 kts 78°
2026-05-05 15:11 9.07789 -77.14974 36963 ft 460 kts 79°
2026-05-05 15:11 9.08961 -77.08687 36959 ft 459 kts 79°
2026-05-05 15:12 9.10148 -77.02308 36949 ft 461 kts 79°
2026-05-05 15:12 9.11335 -76.95928 36947 ft 461 kts 78°
2026-05-05 15:13 9.12521 -76.89548 36943 ft 461 kts 79°
2026-05-05 15:13 9.13505 -76.84251 36949 ft 461 kts 79°
2026-05-05 15:14 9.14686 -76.77879 36946 ft 460 kts 79°
2026-05-05 15:14 9.15864 -76.71516 36940 ft 460 kts 79°
2026-05-05 15:15 9.17044 -76.65150 36936 ft 460 kts 79°
2026-05-05 15:15 9.18222 -76.58784 36935 ft 460 kts 79°
2026-05-05 15:16 9.19391 -76.52457 36939 ft 460 kts 79°
2026-05-05 15:16 9.20566 -76.46091 36942 ft 460 kts 79°
2026-05-05 15:17 9.21742 -76.39708 36943 ft 463 kts 79°
2026-05-05 15:17 9.22922 -76.33303 36942 ft 463 kts 79°
2026-05-05 15:18 9.24102 -76.26894 36942 ft 463 kts 79°
2026-05-05 15:18 9.25279 -76.20487 36934 ft 463 kts 79°
2026-05-05 15:19 9.26456 -76.14079 36933 ft 463 kts 79°
2026-05-05 15:19 9.27623 -76.07714 36936 ft 462 kts 79°
2026-05-05 15:20 9.28794 -76.01325 36937 ft 462 kts 79°
2026-05-05 15:20 9.29963 -75.94940 36937 ft 462 kts 79°
2026-05-05 15:21 9.31132 -75.88549 36936 ft 462 kts 79°
2026-05-05 15:21 9.32299 -75.82157 36934 ft 462 kts 79°
2026-05-05 15:22 9.33465 -75.75767 36947 ft 461 kts 79°
2026-05-05 15:22 9.34626 -75.69398 36939 ft 460 kts 79°
2026-05-05 15:23 9.35786 -75.63031 36931 ft 460 kts 79°
2026-05-05 15:23 9.36936 -75.56708 36934 ft 460 kts 79°
2026-05-05 15:24 9.38093 -75.50342 36937 ft 460 kts 79°
2026-05-05 15:24 9.39249 -75.43973 36941 ft 460 kts 78°
2026-05-05 15:25 9.40402 -75.37614 36934 ft 458 kts 79°
2026-05-05 15:25 9.41550 -75.31279 36943 ft 457 kts 79°
2026-05-05 15:26 9.42696 -75.24945 36929 ft 457 kts 79°
2026-05-05 15:26 9.43841 -75.18612 36942 ft 458 kts 79°
2026-05-05 15:27 9.44978 -75.12313 36943 ft 457 kts 79°
2026-05-05 15:27 9.46122 -75.05974 36931 ft 457 kts 79°
2026-05-05 15:28 9.47265 -74.99636 36938 ft 458 kts 79°
2026-05-05 15:28 9.48408 -74.93284 36937 ft 458 kts 79°
2026-05-05 15:29 9.49551 -74.86932 36926 ft 458 kts 79°
2026-05-05 15:29 9.50632 -74.80567 36935 ft 460 kts 79°
2026-05-05 15:30 9.51713 -74.74177 36926 ft 460 kts 79°
2026-05-05 15:30 9.52793 -74.67788 36934 ft 460 kts 79°
2026-05-05 15:31 9.53872 -74.61399 36926 ft 460 kts 80°
2026-05-05 15:31 9.54951 -74.55006 36923 ft 460 kts 80°
2026-05-05 15:32 9.56029 -74.48611 36919 ft 460 kts 80°
2026-05-05 15:32 9.57105 -74.42220 36926 ft 460 kts 79°
2026-05-05 15:33 9.58180 -74.35830 36922 ft 460 kts 80°
2026-05-05 15:33 9.59254 -74.29435 36920 ft 461 kts 80°
2026-05-05 15:34 9.60328 -74.23033 36925 ft 461 kts 80°
2026-05-05 15:34 9.61402 -74.16626 36914 ft 461 kts 80°
2026-05-05 15:35 9.62466 -74.10263 36916 ft 461 kts 79°
2026-05-05 15:35 9.63536 -74.03860 36918 ft 461 kts 79°
2026-05-05 15:36 9.64606 -73.97454 36919 ft 462 kts 79°
2026-05-05 15:36 9.65676 -73.91036 36912 ft 462 kts 80°
2026-05-05 15:37 9.66747 -73.84613 36913 ft 462 kts 80°
2026-05-05 15:37 9.67814 -73.78195 36913 ft 462 kts 80°
2026-05-05 15:38 9.68882 -73.71772 36920 ft 462 kts 79°
2026-05-05 15:38 9.69959 -73.65352 36916 ft 462 kts 79°
2026-05-05 15:39 9.71031 -73.58964 36923 ft 463 kts 79°
2026-05-05 15:39 9.72107 -73.52533 36918 ft 463 kts 79°
2026-05-05 15:40 9.73183 -73.46099 36926 ft 463 kts 79°
2026-05-05 15:40 9.74257 -73.39667 36927 ft 463 kts 80°
2026-05-05 15:41 9.75330 -73.33235 36964 ft 463 kts 80°
2026-05-05 15:41 9.76403 -73.26798 36951 ft 463 kts 79°
2026-05-05 15:42 9.77475 -73.20358 36992 ft 463 kts 80°
2026-05-05 15:42 9.78546 -73.13913 36984 ft 464 kts 80°
2026-05-05 15:43 9.79611 -73.07501 37001 ft 464 kts 80°
2026-05-05 15:43 9.80682 -73.01044 37010 ft 464 kts 80°
2026-05-05 15:44 9.81731 -72.94589 37004 ft 464 kts 80°
2026-05-05 15:44 9.82771 -72.88124 37006 ft 464 kts 80°
2026-05-05 15:45 9.83808 -72.81666 37024 ft 464 kts 80°
2026-05-05 15:45 9.84846 -72.75196 37006 ft 465 kts 80°
2026-05-05 15:46 9.85882 -72.68731 37008 ft 464 kts 80°
2026-05-05 15:46 9.86917 -72.62270 36973 ft 464 kts 80°
2026-05-05 15:47 9.87950 -72.55801 36974 ft 465 kts 80°
2026-05-05 15:47 9.88983 -72.49334 36955 ft 464 kts 80°
2026-05-05 15:48 9.90007 -72.42910 36949 ft 465 kts 80°
2026-05-05 15:48 9.91038 -72.36437 36945 ft 465 kts 80°
2026-05-05 15:49 9.92067 -72.29966 36933 ft 465 kts 81°
2026-05-05 15:49 9.93096 -72.23493 36944 ft 465 kts 80°
2026-05-05 15:50 9.94124 -72.17012 36941 ft 465 kts 80°
2026-05-05 15:50 9.95151 -72.10534 36938 ft 465 kts 81°
2026-05-05 15:51 9.96176 -72.04054 36944 ft 465 kts 80°
2026-05-05 15:51 9.97201 -71.97571 36944 ft 465 kts 80°
2026-05-05 15:52 9.98224 -71.91090 36938 ft 465 kts 80°
2026-05-05 15:52 9.99239 -71.84655 36935 ft 465 kts 80°
2026-05-05 15:53 10.00258 -71.78182 36936 ft 465 kts 80°
2026-05-05 15:53 10.01277 -71.71710 36943 ft 465 kts 80°
2026-05-05 15:54 10.02290 -71.65235 36931 ft 465 kts 80°
2026-05-05 15:54 10.03302 -71.58761 36938 ft 465 kts 80°
2026-05-05 15:55 10.04313 -71.52286 36934 ft 465 kts 80°
2026-05-05 15:55 10.05329 -71.45772 36935 ft 469 kts 80°
2026-05-05 15:56 10.06346 -71.39238 36941 ft 468 kts 80°
2026-05-05 15:56 10.07230 -71.32694 36942 ft 468 kts 82°
2026-05-05 15:57 10.08095 -71.26143 36936 ft 468 kts 81°
2026-05-05 15:57 10.08962 -71.19594 36941 ft 468 kts 81°
2026-05-05 15:58 10.09828 -71.13044 36942 ft 468 kts 81°
2026-05-05 15:58 10.10687 -71.06539 36942 ft 468 kts 81°
2026-05-05 15:59 10.11553 -70.99978 36950 ft 468 kts 82°
2026-05-05 15:59 10.12415 -70.93428 36952 ft 468 kts 82°
2026-05-05 16:00 10.13273 -70.86876 36953 ft 469 kts 81°
2026-05-05 16:00 10.14128 -70.80312 36957 ft 470 kts 81°
2026-05-05 16:01 10.14978 -70.73778 36972 ft 470 kts 81°
2026-05-05 16:01 10.15830 -70.67213 36962 ft 469 kts 81°
2026-05-05 16:02 10.16683 -70.60641 36963 ft 469 kts 81°
2026-05-05 16:02 10.17533 -70.54071 36965 ft 469 kts 81°
2026-05-05 16:03 10.18380 -70.47513 36960 ft 468 kts 80°
2026-05-05 16:03 10.19221 -70.41006 36952 ft 468 kts 81°
2026-05-05 16:04 10.20065 -70.34450 36960 ft 468 kts 81°
2026-05-05 16:04 10.20908 -70.27901 36949 ft 468 kts 80°
2026-05-05 16:05 10.21094 -70.21323 36912 ft 469 kts 101°
2026-05-05 16:05 10.19610 -70.14864 36923 ft 471 kts 102°
2026-05-05 16:06 10.18044 -70.08415 36945 ft 470 kts 102°
2026-05-05 16:06 10.16817 -70.01910 36956 ft 470 kts 99°
2026-05-05 16:07 10.15610 -69.95407 36954 ft 470 kts 99°
2026-05-05 16:07 10.14395 -69.88943 36960 ft 469 kts 99°
2026-05-05 16:08 10.13173 -69.82436 36967 ft 468 kts 99°
2026-05-05 16:08 10.11954 -69.75963 36984 ft 467 kts 99°
2026-05-05 16:09 10.10734 -69.69489 36982 ft 467 kts 100°
2026-05-05 16:09 10.09513 -69.63015 36996 ft 467 kts 99°
2026-05-05 16:10 10.08291 -69.56543 36996 ft 467 kts 99°
2026-05-05 16:10 10.07064 -69.50056 37012 ft 467 kts 100°
2026-05-05 16:11 10.06046 -69.44674 37013 ft 467 kts 99°
2026-05-05 16:12 10.04418 -69.30626 37042 ft 464 kts 88°
2026-05-05 16:13 10.04777 -69.15356 37023 ft 464 kts 87°
2026-05-05 16:13 10.04942 -69.08801 37021 ft 465 kts 89°
2026-05-05 16:14 10.04343 -68.95675 37030 ft 466 kts 90°
2026-05-05 16:15 10.03788 -68.82545 37023 ft 465 kts 90°
2026-05-05 16:16 10.03232 -68.69438 37026 ft 465 kts 92°
2026-05-05 16:17 10.02811 -68.59654 37029 ft 465 kts 91°
2026-05-05 16:18 10.02378 -68.49828 37026 ft 465 kts 91°
2026-05-05 16:19 10.01943 -68.40004 37026 ft 465 kts 90°
2026-05-05 16:19 10.01506 -68.30178 37028 ft 465 kts 90°
2026-05-05 16:20 10.00880 -68.17080 37042 ft 465 kts 91°
2026-05-05 16:22 10.00081 -68.00762 37062 ft 464 kts 91°
2026-05-05 16:23 9.99434 -67.87676 37053 ft 464 kts 91°
2026-05-05 16:23 9.98944 -67.77852 37049 ft 464 kts 92°
2026-05-05 16:24 9.98626 -67.71307 37039 ft 465 kts 91°
2026-05-05 16:25 9.98162 -67.61489 37021 ft 464 kts 91°
2026-05-05 16:25 9.97694 -67.51721 37021 ft 464 kts 91°
2026-05-05 16:26 9.97064 -67.38647 37026 ft 464 kts 91°
2026-05-05 16:27 9.96748 -67.32111 37026 ft 464 kts 91°
2026-05-05 16:27 9.96430 -67.25573 37024 ft 464 kts 91°
2026-05-05 16:28 9.96110 -67.19033 37021 ft 464 kts 91°
2026-05-05 16:28 9.96131 -67.12513 37040 ft 461 kts 84°
2026-05-05 16:29 9.96593 -67.06050 37019 ft 462 kts 83°
2026-05-05 16:29 9.97077 -66.99546 37021 ft 462 kts 84°
2026-05-05 16:30 9.97561 -66.93045 37027 ft 462 kts 84°
2026-05-05 16:30 9.98044 -66.86540 37036 ft 463 kts 84°
2026-05-05 16:31 9.98526 -66.80026 37023 ft 463 kts 84°
2026-05-05 16:31 9.99006 -66.73519 37017 ft 463 kts 84°
2026-05-05 16:32 9.99485 -66.67012 37022 ft 463 kts 84°
2026-05-05 16:32 9.99960 -66.60542 37023 ft 463 kts 84°
2026-05-05 16:33 10.00436 -66.54033 37026 ft 463 kts 84°
2026-05-05 16:33 10.00912 -66.47526 37023 ft 462 kts 83°
2026-05-05 16:34 10.01148 -66.44288 36610 ft 459 kts 84°
2026-05-05 16:34 10.01385 -66.41028 35503 ft 469 kts 84°
2026-05-05 16:34 10.01629 -66.37679 34357 ft 481 kts 84°
2026-05-05 16:34 10.01873 -66.34297 33695 ft 479 kts 84°
2026-05-05 16:35 10.02117 -66.30932 32927 ft 478 kts 84°
2026-05-05 16:35 10.02362 -66.27552 31971 ft 483 kts 84°
2026-05-05 16:35 10.02602 -66.24132 30922 ft 490 kts 84°
2026-05-05 16:35 10.02842 -66.20668 30003 ft 494 kts 84°
2026-05-05 16:36 10.03084 -66.17192 29063 ft 494 kts 84°
2026-05-05 16:36 10.03326 -66.13712 28109 ft 495 kts 85°
2026-05-05 16:36 10.03568 -66.10223 27085 ft 497 kts 84°
2026-05-05 16:36 10.03811 -66.06715 26053 ft 499 kts 85°
2026-05-05 16:37 10.04055 -66.03195 25032 ft 501 kts 84°
2026-05-05 16:37 10.04297 -65.99689 24365 ft 495 kts 85°
2026-05-05 16:37 10.04536 -65.96229 23747 ft 488 kts 85°
2026-05-05 16:37 10.04771 -65.92816 23064 ft 481 kts 85°
2026-05-05 16:38 10.05001 -65.89457 22379 ft 474 kts 85°
2026-05-05 16:38 10.05229 -65.86147 21713 ft 467 kts 85°
2026-05-05 16:38 10.05449 -65.82934 21075 ft 460 kts 85°
2026-05-05 16:38 10.05669 -65.79724 20442 ft 452 kts 85°
2026-05-05 16:39 10.05889 -65.76563 19836 ft 446 kts 85°
2026-05-05 16:39 10.06126 -65.73452 19274 ft 439 kts 85°
2026-05-05 16:39 10.06358 -65.70388 18740 ft 432 kts 85°
2026-05-05 16:39 10.06585 -65.67380 18219 ft 425 kts 85°
2026-05-05 16:40 10.06809 -65.64416 17657 ft 418 kts 85°
2026-05-05 16:40 10.07028 -65.61499 17133 ft 411 kts 85°
2026-05-05 16:40 10.07244 -65.58627 16611 ft 405 kts 85°
2026-05-05 16:40 10.07456 -65.55800 16148 ft 399 kts 86°
2026-05-05 16:41 10.07665 -65.53016 15692 ft 392 kts 86°
2026-05-05 16:41 10.07870 -65.50279 15285 ft 386 kts 86°
2026-05-05 16:41 10.08085 -65.47583 14896 ft 380 kts 83°
2026-05-05 16:41 10.08689 -65.45030 14538 ft 374 kts 75°
2026-05-05 16:42 10.09393 -65.42515 14226 ft 367 kts 75°
2026-05-05 16:42 10.10095 -65.40057 13991 ft 358 kts 75°
2026-05-05 16:42 10.10787 -65.37665 13795 ft 349 kts 75°
2026-05-05 16:42 10.11467 -65.35335 13570 ft 340 kts 75°
2026-05-05 16:43 10.12128 -65.33071 13409 ft 330 kts 75°
2026-05-05 16:43 10.12772 -65.30869 13229 ft 321 kts 75°
2026-05-05 16:43 10.13397 -65.28731 13067 ft 311 kts 75°
2026-05-05 16:43 10.14003 -65.26656 12917 ft 302 kts 75°
2026-05-05 16:44 10.14394 -65.25317 12825 ft 296 kts 75°
2026-05-05 16:44 10.15176 -65.22642 12648 ft 283 kts 75°
2026-05-05 16:44 10.15728 -65.20752 12433 ft 278 kts 75°
2026-05-05 16:44 10.16276 -65.18877 12100 ft 276 kts 75°
2026-05-05 16:45 10.16711 -65.17386 11841 ft 275 kts 76°
2026-05-05 16:45 10.16881 -65.16802 11735 ft 275 kts 75°
2026-05-05 16:46 10.17423 -65.14947 11434 ft 273 kts 76°
2026-05-05 16:46 10.17962 -65.13100 11118 ft 272 kts 76°
2026-05-05 16:46 10.18497 -65.11266 10813 ft 271 kts 76°
2026-05-05 16:46 10.19030 -65.09437 10514 ft 269 kts 76°
2026-05-05 16:47 10.19560 -65.07621 10221 ft 268 kts 76°
2026-05-05 16:47 10.20088 -65.05810 9921 ft 267 kts 76°
2026-05-05 16:47 10.20612 -65.04012 9603 ft 265 kts 76°
2026-05-05 16:47 10.21129 -65.02239 9249 ft 265 kts 76°
2026-05-05 16:48 10.21653 -65.00442 8907 ft 265 kts 76°
2026-05-05 16:48 10.22175 -64.98650 8590 ft 264 kts 76°
2026-05-05 16:48 10.22696 -64.96862 8285 ft 264 kts 75°
2026-05-05 16:48 10.23216 -64.95078 7996 ft 262 kts 75°
2026-05-05 16:49 10.23731 -64.93305 7703 ft 261 kts 75°
2026-05-05 16:49 10.24236 -64.91571 7595 ft 251 kts 75°
2026-05-05 16:49 10.24722 -64.89902 7489 ft 242 kts 75°
2026-05-05 16:49 10.25176 -64.88295 7411 ft 232 kts 80°
2026-05-05 16:50 10.25166 -64.86714 7273 ft 221 kts 98°
2026-05-05 16:50 10.24959 -64.85178 7081 ft 214 kts 98°
2026-05-05 16:50 10.24761 -64.83722 6924 ft 203 kts 98°
2026-05-05 16:50 10.24567 -64.82337 6749 ft 193 kts 98°
2026-05-05 16:51 10.24382 -64.81039 6616 ft 182 kts 98°
2026-05-05 16:51 10.24152 -64.79837 6383 ft 170 kts 107°
2026-05-05 16:51 10.23651 -64.78730 5817 ft 177 kts 121°
2026-05-05 16:51 10.22869 -64.77752 5368 ft 178 kts 135°
2026-05-05 16:52 10.21883 -64.77009 4969 ft 177 kts 148°
2026-05-05 16:52 10.20809 -64.76404 4551 ft 175 kts 146°
2026-05-05 16:52 10.19817 -64.75709 4151 ft 172 kts 142°
2026-05-05 16:52 10.18836 -64.75008 3739 ft 173 kts 143°
2026-05-05 16:53 10.17846 -64.74300 3310 ft 175 kts 142°
2026-05-05 16:53 10.16854 -64.73593 2935 ft 173 kts 145°
2026-05-05 16:53 10.15863 -64.72921 2566 ft 170 kts 143°
2026-05-05 16:53 10.14882 -64.72290 2242 ft 167 kts 153°
2026-05-05 16:54 10.13791 -64.71983 2021 ft 160 kts 167°
2026-05-05 16:54 10.12680 -64.71776 1754 ft 163 kts 167°
2026-05-05 16:54 10.11560 -64.71572 1771 ft 164 kts 166°
2026-05-05 16:54 10.10430 -64.71343 1751 ft 167 kts 167°
2026-05-05 16:55 10.09287 -64.71140 1606 ft 166 kts 169°
2026-05-05 16:55 10.08140 -64.71022 1405 ft 166 kts 176°
2026-05-05 16:55 10.06997 -64.71085 1375 ft 164 kts 181°
2026-05-05 16:55 10.05856 -64.71162 1297 ft 166 kts 178°
2026-05-05 16:56 10.04720 -64.71039 1275 ft 164 kts 161°
2026-05-05 16:56 10.03729 -64.70499 1302 ft 162 kts 139°
2026-05-05 16:56 10.02861 -64.69786 1267 ft 161 kts 140°
2026-05-05 16:56 10.01963 -64.69092 1239 ft 162 kts 140°
2026-05-05 16:57 10.01207 -64.68270 1050 ft 160 kts 117°
2026-05-05 16:57 10.00959 -64.67189 834 ft 159 kts 77°
2026-05-05 16:57 10.01535 -64.66309 731 ft 149 kts 28°
2026-05-05 16:57 10.02499 -64.66080 653 ft 146 kts
2026-05-05 16:58 10.03534 -64.66039 685 ft 149 kts 358°
2026-05-05 16:58 10.04565 -64.66071 777 ft 149 kts 357°
2026-05-05 16:58 10.05608 -64.66148 841 ft 151 kts 355°
2026-05-05 16:58 10.06647 -64.66241 829 ft 148 kts 355°
2026-05-05 16:59 10.07656 -64.66359 754 ft 144 kts 348°
2026-05-05 16:59 10.08510 -64.66855 510 ft 145 kts 315°
2026-05-05 16:59 10.09152 -64.67642 308 ft 141 kts 314°
2026-05-05 16:59 10.09867 -64.68264 125 ft 132 kts 326°
2026-05-05 17:00 10.10571 -64.68795 36 ft 111 kts 322°
2026-05-05 17:00 10.10989 -64.69120 36 ft 51 kts 322°
2026-05-05 17:00 10.11233 -64.69309 35 ft 44 kts 322°
2026-05-05 17:00 10.11475 -64.69498 32 ft 44 kts 323°
2026-05-05 17:01 10.11715 -64.69687 29 ft 43 kts 322°
2026-05-05 17:01 10.11951 -64.69868 29 ft 42 kts 323°
2026-05-05 17:01 10.12167 -64.70021 30 ft 15 kts 348°
2026-05-05 17:01 10.12202 -64.70040 30 ft 1 kts 280°
2026-05-05 17:02 10.12200 -64.70044 30 ft 1 kts 248°
2026-05-05 17:02 10.12194 -64.70050 30 ft 1 kts 211°
2026-05-05 17:02 10.12188 -64.70049 30 ft 1 kts 167°
2026-05-05 17:02 10.12182 -64.70044 30 ft 2 kts 142°
2026-05-05 17:03 10.12162 -64.70028 30 ft 5 kts 141°
2026-05-05 17:03 10.12126 -64.69998 30 ft 8 kts 141°
2026-05-05 17:03 10.12069 -64.69958 29 ft 12 kts 145°
2026-05-05 17:03 10.11997 -64.69904 29 ft 14 kts 142°
2026-05-05 17:04 10.11913 -64.69838 29 ft 16 kts 143°
2026-05-05 17:04 10.11813 -64.69762 29 ft 19 kts 143°
2026-05-05 17:04 10.11698 -64.69673 29 ft 22 kts 142°
2026-05-05 17:04 10.11575 -64.69577 31 ft 23 kts 142°
2026-05-05 17:05 10.11442 -64.69474 33 ft 25 kts 142°
2026-05-05 17:05 10.11303 -64.69366 35 ft 26 kts 142°
2026-05-05 17:05 10.11151 -64.69249 36 ft 28 kts 143°
2026-05-05 17:05 10.10991 -64.69125 36 ft 30 kts 143°
2026-05-05 17:06 10.10819 -64.68992 37 ft 32 kts 142°
2026-05-05 17:06 10.10635 -64.68849 36 ft 34 kts 142°
2026-05-05 17:06 10.10453 -64.68706 26 ft 31 kts 142°
2026-05-05 17:06 10.10311 -64.68592 28 ft 19 kts 142°
2026-05-05 17:07 10.10277 -64.68528 29 ft 11 kts 66°
2026-05-05 17:07 10.10329 -64.68454 27 ft 15 kts 57°
2026-05-05 17:07 10.10308 -64.68372 26 ft 12 kts 134°
2026-05-05 17:07 10.10301 -64.68341 26 ft 5 kts 74°
2026-05-05 17:08 10.10314 -64.68316 24 ft 7 kts 59°
2026-05-05 17:08 10.10332 -64.68290 26 ft 3 kts 52°
2026-05-05 17:08 10.10336 -64.68286 26 ft 1 kts 51°
2026-05-05 17:08 10.10337 -64.68285 26 ft 0 kts 51°